Location: Poughquag
(41.6090°N, 73.6820°W)
Time: 08:23:17
(UTC-05:00)

Vanguard 1 - Pass Details

Date: 08 December 2023
Orbit: 653 x 3826 km, 34.3° (Epoch: 25 February)

Event Time Altitude Azimuth Distance (km) Brightness Sun altitude
Rises 23:57:47 0° 284° (WNW) 7,598 14.6 -70.9°
Reaches altitude 10° 00:03:38 10° 275° (W) 6,794 14.2 -70.7°
Enters shadow 00:05:40 13° 272° (W) 6,537 14.1 -70.7°
Maximum altitude 00:21:55 31° 224° (SW) 5,189 - -69.7°
Drops below altitude 10° 00:38:03 10° 170° (S) 5,922 - -68.2°
Sets 00:42:47 0° 161° (SSE) 6,533 - -67.7°
